Location: Canet
(43.3261°N, 5.3723°E)
Time: 19:29:21
(UTC+00:00)

Cosmos 1726 Rocket - Pass Details

Date: 24 January 2021
Orbit: 604 x 628 km, 82.5° (Epoch: 07 March)

Event Time Altitude Azimuth Distance (km) Brightness Sun altitude
Rises 17:05:57 0° 351° (N) 2,889 6.9 -5.2°
Reaches altitude 10° 17:08:11 10° 352° (N) 1,983 6.0 -5.6°
Maximum altitude 17:12:35 89° 265° (W) 624 3.6 -6.3°
Drops below altitude 10° 17:16:59 10° 174° (S) 1,983 6.3 -7.1°
Sets 17:19:12 0° 174° (S) 2,888 7.2 -7.4°
